Wetbulb
65.21 67.70 70.78 71.20 71.42 71.55 71.63 71.31 71.12 71.24 71.27 71.14 71.69 71.91 71.45 70.80 70.55 70.33 69.91 70.00 70.45 71.40 71.73 70.80 70.97 70.98 70.70 70.34 69.92 70.27 71.10 70.61 71.08 71.38 71.95 72.06 72.50 72.05 71.98 71.91 71.92 71.21 72.67
64.27 66.38 70.08 70.50 70.95 70.99 70.89 71.22 71.30 71.19 71.03 70.84 70.73 70.59 71.19 70.79 70.67 70.68 70.39 69.71 69.81 70.41 71.13 70.90 70.63 70.27 70.54 69.91 69.68 69.58 69.97 70.56 71.02 71.07 70.42 70.50 71.37 71.93 71.32 71.68 71.40 70.23 72.09
61.00 65.04 67.38 69.96 70.25 70.42 70.67 70.59 70.53 70.58 70.67 70.87 70.74 70.53 70.29 70.50 70.90 70.73 70.73 70.60 69.96 69.78 69.85 70.17 70.55 70.78 70.26 70.26 69.62 69.63 69.91 70.34 70.11 70.68 70.32 67.85 68.08 71.04 71.12 71.07 71.13 71.18 71.45
60.17 62.15 63.66 66.51 68.07 69.36 69.68 69.91 69.95 69.97 70.12 70.21 70.30 70.25 70.30 70.27 70.28 70.27 70.06 70.27 70.64 70.22 70.16 70.07 70.05 70.51 70.46 70.51 69.77 69.56 69.95 70.41 70.59 69.70 68.13 68.40 68.38 70.62 70.60 71.21 70.75 70.76 71.22
56.19 57.92 61.34 64.09 64.41 65.71 66.91 68.01 68.79 69.18 69.43 69.14 69.23 69.21 69.66 69.81 69.75 69.94 69.84 69.66 69.40 69.43 69.62 70.08 70.19 70.22 70.51 70.71 70.58 70.14 70.42 70.74 70.15 68.74 66.44 66.38 66.04 68.59 70.56 71.01 70.24 70.67 71.38
52.96 54.48 60.04 63.52 63.36 63.44 63.77 64.29 65.36 66.48 66.66 66.78 66.69 67.39 67.99 68.32 69.06 69.25 69.22 69.15 69.12 69.15 69.46 69.42 70.09 70.34 70.79 70.52 70.33 70.24 70.50 71.15 69.86 66.07 65.10 65.64 67.00 69.37 70.30 70.51 70.23 70.31 70.68
52.64 53.58 54.99 61.90 62.56 62.68 63.16 63.29 63.50 63.80 64.27 64.40 65.59 65.50 66.72 67.71 67.87 67.97 67.99 68.32 68.64 68.78 69.10 69.44 69.41 69.58 70.41 70.61 70.31 70.15 70.74 70.38 68.41 65.59 64.37 65.06 66.24 69.78 70.16 70.35 69.85 70.12 71.13
52.42 53.12 53.57 57.56 60.78 61.31 62.26 62.48 62.98 63.17 63.21 62.74 63.02 63.02 62.87 63.56 64.57 65.58 65.57 65.68 66.62 67.85 68.35 68.74 68.95 69.42 70.02 69.98 70.39 70.58 70.07 68.86 67.62 65.81 64.68 64.60 66.63 69.69 69.93 70.58 70.35 70.90 70.92
52.00 52.09 51.71 52.30 54.81 57.55 60.07 60.50 61.07 60.85 60.64 60.07 60.17 61.09 61.57 61.37 61.14 61.59 62.59 63.62 64.72 65.06 66.10 66.99 68.12 68.38 69.13 69.79 70.17 70.05 69.01 68.07 66.68 64.68 64.41 64.31 67.46 69.77 69.64 70.38 70.14 70.11 70.00
50.47 50.48 50.56 50.67 51.41 51.40 52.22 58.05 58.06 58.57 58.67 57.97 57.26 57.45 57.08 57.82 58.47 59.68 60.38 61.46 62.67 63.35 63.92 65.17 66.22 67.49 67.96 68.69 69.28 69.10 68.03 66.67 65.75 64.41 63.81 64.62 69.04 69.68 69.87 69.16 68.99 69.18 69.44
50.24 49.08 49.47 49.52 49.85 50.36 51.57 52.94 53.64 54.83 54.81 54.45 53.00 53.74 52.12 51.62 52.56 53.31 56.02 58.31 60.04 62.05 61.99 63.07 64.24 64.75 65.15 65.64 67.28 67.27 66.54 65.72 64.90 64.34 62.61 65.12 69.29 69.77 69.74 68.21 68.05 68.68 69.00
46.86 47.79 47.63 48.12 48.26 48.85 51.86 48.99 49.03 49.62 48.74 48.87 48.45 47.62 48.35 49.22 49.89 51.33 52.66 55.29 57.13 58.91 59.06 60.66 62.08 62.63 62.56 63.14 64.24 65.18 65.11 64.83 63.92 64.14 62.95 64.77 68.94 69.49 69.82 69.56 69.91 69.43 68.68
46.36 46.28 46.37 46.36 47.05 46.58 47.66 47.35 47.33 47.22 46.15 46.57 46.12 46.03 46.19 47.52 46.68 47.32 48.49 49.79 51.85 54.74 53.70 55.02 57.06 59.83 60.51 61.45 62.49 63.78 64.25 64.04 63.55 63.34 64.00 66.15 68.00 69.18 68.95 68.80 69.04 68.70 68.31
44.92 44.62 44.82 44.31 44.72 44.96 45.89 45.27 45.50 45.27 44.18 44.02 44.32 44.63 43.49 44.43 43.90 44.82 45.55 47.80 49.67 50.53 50.12 51.41 53.41 56.46 58.26 60.82 61.13 61.27 63.11 63.75 63.89 63.55 63.66 64.75 67.47 68.49 68.45 67.85 68.18 68.50 68.24
43.96 43.66 42.78 42.89 42.23 43.77 43.51 43.77 43.22 43.57 43.06 42.55 42.60 43.45 43.24 42.32 42.14 43.67 43.82 45.99 47.51 47.79 48.67 49.70 51.16 54.19 55.85 57.60 59.10 60.30 60.32 61.55 63.70 63.60 63.39 62.55 64.53 65.40 66.31 66.90 67.12 67.49 67.66
43.14 42.28 42.75 42.60 41.84 41.92 41.49 41.49 42.18 42.45 42.61 42.00 41.58 41.91 42.90 42.36 41.13 42.40 42.93 44.10 45.47 45.71 47.62 49.27 49.83 50.96 52.20 54.75 56.13 58.21 59.64 60.30 60.49 63.41 63.68 62.98 63.33 63.62 63.71 64.09 65.20 65.97 66.99
41.63 41.75 41.68 42.78 42.13 40.91 40.65 40.80 41.28 41.53 42.56 41.53 41.58 41.53 41.52 42.08 41.29 40.76 41.65 42.23 43.79 44.91 46.09 48.01 48.15 48.44 48.49 50.58 52.06 55.34 58.01 59.09 59.96 60.71 63.23 63.22 63.42 62.78 62.99 64.08 64.36 65.06 66.04
41.42 40.76 41.47 43.84 42.26 41.56 40.55 40.61 41.35 41.30 40.35 40.11 40.42 40.24 40.87 41.31 41.46 40.54 40.48 41.02 42.90 43.81 44.67 45.59 46.24 46.20 46.75 47.66 49.09 51.29 54.64 57.11 58.55 59.70 61.67 61.96 62.29 62.71 61.10 63.13 63.39 63.40 64.79
40.62 40.99 41.88 42.42 41.68 41.26 40.54 40.36 40.12 40.13 39.68 39.50 39.49 39.20 40.17 40.65 40.78 39.50 39.41 39.86 42.04 42.85 43.48 43.82 44.32 45.45 45.81 45.92 46.74 48.80 51.79 54.26 56.80 59.32 58.74 59.12 60.73 61.24 60.92 61.92 62.28 61.47 62.01
41.24 41.54 41.22 42.05 41.84 41.06 40.00 39.02 38.82 38.56 38.49 38.70 38.28 39.21 40.29 39.47 39.93 39.35 39.09 38.88 39.75 41.32 41.86 42.50 43.05 45.05 45.45 45.60 46.63 47.62 49.83 52.54 55.32 57.07 58.41 58.95 58.71 59.12 59.24 60.21 61.04 60.91 61.60
40.85 40.55 40.35 41.41 41.02 39.32 37.71 36.35 36.04 35.67 36.84 37.15 37.41 38.86 38.54 38.78 39.23 38.32 37.94 37.80 38.71 38.71 39.13 41.65 42.57 41.64 43.62 45.55 45.23 44.70 46.36 49.61 52.68 55.14 57.16 57.61 57.96 58.29 58.69 59.70 60.41 60.34 60.31
39.99 39.87 41.61 40.73 39.76 38.45 37.56 36.51 36.06 35.20 35.59 35.97 36.89 36.80 37.61 37.57 37.96 37.51 37.15 37.01 36.85 36.48 38.03 40.18 41.00 40.70 42.54 45.34 41.87 42.30 43.23 47.50 51.10 53.30 55.15 57.35 57.67 58.48 58.86 59.20 59.35 59.98 60.31
38.90 40.43 40.30 38.35 37.43 37.13 35.84 35.94 35.12 34.56 34.02 33.48 34.28 34.82 35.67 36.36 36.47 36.83 36.64 36.52 35.60 35.94 36.01 37.20 38.55 38.72 38.07 41.54 43.47 41.96 42.01 42.53 44.28 51.03 54.18 55.01 56.01 56.65 57.22 57.78 58.43 58.97 60.05
40.02 38.94 36.85 36.68 36.56 36.51 34.54 32.90 30.85 30.19 30.14 31.45 32.68 33.99 34.17 34.74 35.00 36.22 36.58 35.43 35.18 35.62 34.51 35.29 37.53 38.09 38.32 37.23 41.35 44.70 44.06 42.81 42.76 42.53 49.09 51.52 52.56 54.81 55.44 55.86 57.01 57.53 58.59
38.18 34.86 34.31 34.34 34.27 34.25 33.06 32.01 30.28 29.19 29.99 31.18 31.28 30.80 31.93 32.74 33.81 34.70 34.99 34.48 33.99 34.65 34.56 34.05 34.76 34.94 36.13 35.95 37.41 39.58 39.95 41.23 42.79 42.84 42.75 46.66 51.54 51.62 52.41 54.04 54.79 55.43 57.44
34.37 33.44 32.45 32.72 33.01 32.81 31.88 31.21 30.09 28.49 28.46 29.02 29.60 29.38 30.45 31.44 32.24 32.76 33.57 33.31 33.56 33.48 33.40 33.96 33.88 34.10 34.60 35.12 36.12 38.63 39.65 39.53 39.98 41.24 41.94 42.96 44.32 49.69 51.31 52.78 53.54 53.99 55.32
MSLP
1019.79 1019.27 1018.83 1018.37 1018.09 1017.95 1017.62 1017.46 1017.31 1017.16 1017.05 1016.84 1016.70 1016.62 1016.60 1016.52 1016.43 1016.35 1016.25 1016.17 1016.02 1015.83 1015.60 1015.49 1015.42 1015.36 1015.36 1015.23 1015.23 1015.21 1015.17 1015.11 1015.11 1015.09 1015.05 1015.06 1015.01 1015.11 1015.17 1015.30 1015.25 1015.09 1015.05
1020.02 1019.52 1019.16 1018.80 1018.40 1018.16 1017.92 1017.72 1017.53 1017.34 1017.21 1016.98 1016.84 1016.72 1016.62 1016.51 1016.49 1016.42 1016.31 1016.23 1016.03 1015.92 1015.73 1015.53 1015.32 1015.40 1015.29 1015.19 1015.18 1015.20 1015.21 1015.17 1015.15 1015.23 1015.22 1015.17 1015.13 1015.16 1015.21 1015.36 1015.40 1015.35 1015.16
1020.22 1019.83 1019.52 1019.19 1018.80 1018.51 1018.22 1018.01 1017.80 1017.58 1017.45 1017.26 1017.07 1016.92 1016.75 1016.69 1016.52 1016.36 1016.32 1016.27 1016.18 1016.02 1015.81 1015.56 1015.46 1015.31 1015.18 1015.26 1015.17 1015.07 1015.14 1015.16 1015.18 1015.20 1015.29 1015.34 1015.33 1015.19 1015.21 1015.30 1015.44 1015.44 1015.36
1020.47 1020.32 1019.98 1019.59 1019.18 1018.87 1018.58 1018.25 1018.01 1017.78 1017.65 1017.50 1017.38 1017.20 1017.01 1016.85 1016.72 1016.50 1016.34 1016.19 1016.09 1016.03 1015.96 1015.77 1015.54 1015.40 1015.25 1015.15 1015.19 1015.07 1015.05 1015.07 1015.08 1015.26 1015.31 1015.26 1015.32 1015.22 1015.19 1015.20 1015.30 1015.39 1015.46
1021.04 1020.78 1020.38 1020.03 1019.68 1019.45 1019.13 1018.76 1018.45 1018.16 1017.89 1017.74 1017.66 1017.53 1017.31 1017.02 1016.82 1016.64 1016.34 1016.17 1016.00 1015.87 1015.76 1015.68 1015.60 1015.46 1015.29 1015.17 1015.02 1014.98 1015.02 1014.99 1015.02 1015.14 1015.31 1015.20 1015.06 1015.00 1015.01 1015.03 1015.04 1015.16 1015.34
1021.69 1021.26 1020.79 1020.35 1020.04 1019.87 1019.56 1019.23 1018.91 1018.63 1018.44 1018.26 1018.01 1017.92 1017.62 1017.32 1017.05 1016.88 1016.76 1016.49 1016.15 1015.84 1015.61 1015.44 1015.31 1015.26 1015.19 1015.13 1015.02 1014.90 1014.74 1014.85 1014.90 1015.05 1015.23 1015.15 1014.85 1014.67 1014.68 1014.79 1014.84 1015.03 1015.31
1022.04 1021.81 1021.37 1020.78 1020.45 1020.27 1020.04 1019.71 1019.42 1019.15 1018.91 1018.77 1018.47 1018.29 1018.00 1017.62 1017.39 1017.22 1016.96 1016.77 1016.46 1016.24 1015.91 1015.50 1015.17 1014.96 1014.81 1014.86 1014.90 1014.78 1014.65 1014.54 1014.58 1014.81 1015.02 1014.95 1014.66 1014.30 1014.38 1014.73 1014.70 1014.95 1015.24
1022.35 1022.16 1021.90 1021.54 1021.18 1020.86 1020.53 1020.24 1019.93 1019.66 1019.54 1019.32 1019.01 1018.79 1018.53 1018.27 1017.86 1017.66 1017.36 1017.09 1016.70 1016.38 1015.93 1015.76 1015.42 1014.98 1014.63 1014.45 1014.42 1014.46 1014.39 1014.36 1014.39 1014.39 1014.66 1014.65 1014.43 1014.09 1014.18 1014.54 1014.78 1014.84 1015.06
1022.79 1022.60 1022.38 1022.22 1021.94 1021.64 1021.21 1020.82 1020.62 1020.37 1020.16 1019.86 1019.71 1019.37 1019.19 1018.93 1018.50 1018.19 1017.76 1017.32 1016.87 1016.52 1016.12 1015.79 1015.37 1015.16 1014.76 1014.36 1014.10 1013.97 1014.09 1014.03 1014.12 1014.16 1014.17 1014.24 1014.08 1013.80 1014.17 1014.54 1014.74 1014.73 1015.06
1023.18 1023.14 1022.95 1022.63 1022.37 1022.14 1021.93 1021.54 1021.26 1021.06 1020.78 1020.53 1020.34 1020.02 1019.87 1019.59 1019.06 1018.69 1018.25 1017.86 1017.29 1016.79 1016.13 1015.77 1015.38 1014.99 1014.79 1014.41 1014.06 1013.66 1013.61 1013.77 1013.77 1013.87 1013.89 1013.84 1013.75 1013.59 1013.97 1014.48 1014.74 1014.86 1015.07
1023.72 1023.52 1023.43 1023.20 1022.90 1022.64 1022.35 1022.28 1022.00 1021.78 1021.53 1021.37 1020.91 1020.63 1020.38 1019.93 1019.57 1018.98 1018.61 1018.14 1017.63 1017.08 1016.53 1015.96 1015.42 1015.02 1014.91 1014.41 1013.90 1013.70 1013.28 1013.40 1013.35 1013.51 1013.63 1013.61 1013.28 1013.26 1013.57 1013.94 1014.19 1014.62 1014.85
1024.27 1024.06 1024.00 1023.74 1023.49 1023.24 1022.83 1022.87 1022.56 1022.32 1022.15 1021.92 1021.51 1021.20 1020.81 1020.41 1019.96 1019.47 1018.92 1018.43 1018.04 1017.54 1017.02 1016.38 1015.60 1015.08 1014.73 1014.42 1014.01 1013.64 1013.33 1013.11 1013.08 1013.04 1013.34 1013.17 1012.94 1012.71 1013.11 1013.46 1013.70 1013.91 1014.35
1024.69 1024.53 1024.32 1024.06 1023.85 1023.62 1023.50 1023.23 1023.04 1022.78 1022.57 1022.32 1022.02 1021.70 1021.34 1020.88 1020.43 1019.88 1019.39 1018.95 1018.50 1018.00 1017.69 1016.99 1016.34 1015.49 1014.77 1014.54 1013.98 1013.63 1013.46 1012.94 1013.07 1013.02 1012.89 1012.70 1012.47 1012.28 1012.62 1013.00 1013.34 1013.54 1013.85
1024.80 1024.76 1024.56 1024.39 1024.08 1023.96 1023.77 1023.64 1023.48 1023.24 1022.97 1022.68 1022.38 1022.03 1021.71 1021.37 1020.99 1020.50 1020.04 1019.54 1018.97 1018.47 1017.94 1017.51 1016.82 1015.97 1015.10 1014.37 1013.93 1013.48 1013.38 1012.76 1012.81 1012.77 1012.81 1012.46 1011.90 1011.95 1012.21 1012.42 1012.87 1013.17 1013.33
1024.84 1024.95 1024.89 1024.68 1024.62 1024.40 1024.21 1024.06 1023.85 1023.65 1023.38 1023.13 1022.76 1022.37 1022.02 1021.75 1021.38 1020.92 1020.44 1020.01 1019.39 1018.72 1018.22 1017.70 1017.06 1016.42 1015.54 1014.76 1014.09 1013.44 1013.20 1012.97 1012.34 1011.79 1012.03 1012.33 1011.90 1011.97 1012.02 1012.34 1012.66 1012.82 1012.99
1025.02 1025.07 1025.06 1025.02 1024.98 1024.71 1024.54 1024.37 1024.21 1023.88 1023.66 1023.37 1022.98 1022.58 1022.17 1021.88 1021.64 1021.24 1020.64 1020.17 1019.72 1019.22 1018.56 1018.11 1017.33 1016.65 1016.08 1015.15 1014.32 1013.46 1012.85 1012.30 1011.79 1011.24 1011.15 1011.41 1011.87 1011.85 1012.12 1012.24 1012.37 1012.50 1012.40
1025.19 1025.17 1025.03 1024.98 1025.08 1024.93 1024.80 1024.60 1024.39 1024.18 1023.76 1023.38 1023.07 1022.71 1022.40 1021.97 1021.62 1021.27 1020.94 1020.35 1019.87 1019.31 1018.66 1018.07 1017.35 1016.67 1016.13 1015.45 1014.56 1013.79 1012.70 1012.05 1011.81 1010.98 1010.40 1010.70 1010.84 1011.36 1011.93 1012.21 1012.30 1012.20 1011.96
1025.21 1025.25 1025.30 1025.26 1025.28 1025.12 1024.93 1024.71 1024.48 1024.24 1024.00 1023.72 1023.38 1022.92 1022.33 1021.78 1021.46 1021.24 1020.88 1020.42 1019.84 1019.36 1018.67 1018.26 1017.73 1016.97 1016.42 1015.72 1014.66 1013.85 1012.85 1012.19 1011.49 1011.06 1010.79 1010.28 1010.68 1010.75 1010.98 1011.63 1011.93 1011.97 1011.43
1025.32 1025.41 1025.46 1025.42 1025.32 1025.10 1024.97 1024.87 1024.65 1024.40 1024.13 1023.72 1023.28 1022.88 1022.39 1022.05 1021.56 1021.23 1020.92 1020.46 1019.78 1019.28 1018.71 1018.30 1017.86 1017.30 1016.63 1015.80 1014.78 1013.67 1012.80 1012.01 1011.35 1010.94 1010.84 1010.81 1010.07 1010.75 1011.24 1011.30 1011.63 1011.50 1011.47
1025.31 1025.39 1025.34 1025.29 1025.22 1025.14 1025.07 1024.87 1024.65 1024.33 1023.88 1023.53 1023.18 1022.75 1022.36 1021.99 1021.56 1021.14 1020.80 1020.40 1019.91 1019.42 1018.93 1018.41 1017.95 1017.21 1016.92 1016.07 1014.82 1013.47 1012.35 1011.62 1010.88 1010.46 1010.30 1010.04 1010.26 1010.47 1010.82 1010.84 1010.83 1010.84 1010.92
1025.26 1025.32 1025.42 1025.46 1025.38 1025.25 1025.14 1025.00 1024.65 1024.44 1023.89 1023.47 1023.07 1022.74 1022.45 1022.05 1021.59 1021.08 1020.62 1020.31 1019.94 1019.58 1019.05 1018.51 1017.87 1017.21 1016.78 1016.03 1015.00 1013.75 1012.14 1010.83 1010.33 1010.04 1009.78 1009.88 1010.01 1010.04 1010.20 1010.20 1010.30 1010.21 1010.52
1025.17 1025.35 1025.54 1025.55 1025.39 1025.22 1025.12 1024.92 1024.82 1024.51 1023.98 1023.55 1023.11 1022.80 1022.34 1021.93 1021.61 1021.04 1020.73 1020.37 1019.99 1019.57 1019.07 1018.54 1018.02 1017.52 1017.03 1016.43 1016.05 1014.66 1012.74 1010.95 1010.30 1009.63 1009.66 1009.62 1009.60 1009.53 1009.68 1009.69 1009.55 1009.76 1010.16
1025.21 1025.44 1025.47 1025.40 1025.29 1025.19 1025.10 1024.87 1024.53 1024.14 1023.84 1023.55 1023.25 1022.66 1022.21 1021.98 1021.60 1021.12 1020.63 1020.35 1019.91 1019.59 1019.16 1018.66 1018.16 1017.78 1017.18 1016.68 1016.22 1015.89 1014.12 1012.61 1011.95 1010.00 1009.48 1009.46 1009.52 1009.58 1009.48 1009.49 1009.53 1009.54 1009.88
1025.08 1025.33 1025.36 1025.33 1025.29 1025.18 1025.03 1024.94 1024.84 1024.67 1024.31 1023.90 1023.40 1022.76 1022.18 1021.86 1021.61 1021.10 1020.56 1020.18 1019.82 1019.48 1019.08 1018.64 1018.15 1017.89 1017.50 1016.99 1016.26 1015.54 1015.21 1014.87 1013.36 1011.77 1010.28 1009.82 1009.66 1009.50 1009.29 1009.22 1009.26 1009.33 1009.58
1025.07 1025.26 1025.33 1025.33 1025.22 1025.16 1025.08 1024.96 1024.91 1024.79 1024.43 1023.73 1023.32 1022.84 1022.30 1021.67 1021.41 1020.93 1020.41 1019.98 1019.62 1019.23 1018.89 1018.50 1018.15 1017.88 1017.55 1017.18 1016.67 1015.79 1015.24 1014.55 1013.96 1013.20 1011.59 1010.48 1010.01 1009.72 1009.42 1009.32 1009.44 1009.38 1009.12
1025.14 1025.25 1025.35 1025.34 1025.25 1025.13 1025.02 1024.91 1024.83 1024.76 1024.33 1023.85 1023.24 1022.81 1022.29 1021.66 1021.17 1020.75 1020.21 1019.72 1019.34 1018.90 1018.60 1018.19 1017.96 1017.65 1017.33 1016.94 1016.75 1016.02 1015.28 1014.74 1013.87 1013.28 1012.37 1011.57 1010.86 1009.67 1009.30 1009.29 1009.18 1009.03 1009.18
Wind_Speed
6 10 15 14 13 13 12 11 10 9 9 8 8 7 7 7 8 8 8 8 7 5 5 3 2 2 3 3 2 2 2 2 3 5 6 7 8 8 9 7 7 5 11
3 9 16 15 15 13 12 13 12 11 9 8 7 7 7 6 6 7 7 8 7 6 5 5 4 4 3 3 2 1 2 3 4 4 4 4 5 7 6 8 7 6 12
8 10 11 16 15 15 16 14 13 13 12 11 10 9 8 7 7 6 6 7 8 8 7 5 5 5 4 3 2 1 2 2 3 3 2 2 2 7 8 8 8 9 11
8 6 8 14 16 16 15 15 15 14 13 13 13 13 12 11 10 9 8 7 8 8 10 8 6 5 6 4 3 3 4 4 5 5 3 3 4 7 7 12 11 12 13
7 7 7 15 17 17 16 16 16 15 15 15 16 16 16 15 13 13 11 9 9 9 9 9 9 9 8 7 7 7 7 7 6 5 5 5 5 7 12 13 13 14 16
7 8 9 15 17 17 17 17 17 17 17 17 16 15 14 14 15 14 15 13 11 11 11 11 10 11 10 9 10 10 10 9 7 4 5 7 7 12 14 15 14 15 15
7 7 8 16 15 16 16 17 16 16 17 17 17 19 18 18 17 18 18 17 16 16 16 14 13 13 11 11 12 13 11 10 6 5 5 6 6 13 14 14 15 16 16
7 8 8 15 16 17 18 17 18 18 18 18 18 18 17 17 17 16 16 15 17 19 16 17 18 16 13 13 14 14 12 11 6 6 5 5 9 12 15 15 16 17 17
7 8 8 8 11 16 18 19 18 18 18 20 19 19 18 18 18 16 15 16 16 16 17 18 18 19 18 15 13 13 13 11 6 4 5 4 11 14 15 14 15 16 15
7 7 8 8 8 7 8 20 20 21 21 21 21 20 19 17 19 19 19 18 18 17 17 17 18 18 19 18 14 12 12 12 6 5 4 5 13 14 17 14 11 10 13
7 8 7 9 9 8 9 11 15 17 19 18 16 19 12 7 9 11 16 19 20 18 18 17 17 18 19 17 14 13 9 4 5 4 4 10 16 18 19 20 20 19 20
7 7 7 7 9 7 8 7 7 9 7 8 9 10 8 7 9 11 13 19 20 19 19 20 18 16 11 7 6 9 4 5 5 5 5 12 19 19 20 21 20 20 20
4 6 7 7 6 7 6 4 4 3 4 5 8 9 7 7 8 7 6 6 7 13 7 11 10 7 8 6 6 6 6 4 4 4 7 12 20 21 20 20 20 20 20
7 6 6 7 6 6 4 4 4 4 4 4 6 8 7 6 7 8 6 8 7 6 8 8 7 10 9 6 6 6 8 7 6 4 6 12 17 20 18 15 19 20 20
8 6 7 7 7 6 6 4 5 4 4 5 5 6 5 5 7 6 7 7 7 8 8 8 8 8 9 8 7 5 6 8 11 7 5 12 8 7 9 9 10 14 19
6 6 5 7 6 6 6 6 4 4 5 4 4 5 6 4 5 6 7 7 7 8 7 7 7 8 9 8 9 9 8 7 9 10 7 8 12 7 5 3 8 9 14
5 5 6 5 6 6 6 5 4 4 5 5 6 6 6 5 5 5 6 7 7 7 8 7 9 8 8 9 9 9 8 8 8 10 7 6 8 12 8 10 11 13 11
6 6 5 5 5 5 5 5 4 5 4 4 4 5 7 6 7 5 6 7 7 7 6 6 7 8 7 8 9 9 7 7 8 6 6 7 4 5 5 15 17 16 10
6 5 3 4 5 6 6 4 4 5 4 4 4 5 7 6 7 5 6 7 9 7 7 6 7 7 8 8 10 10 9 8 7 5 6 4 4 7 7 10 19 16 16
4 3 3 4 6 5 4 4 3 3 3 3 4 4 6 7 8 8 7 6 8 7 7 8 8 7 7 8 10 11 9 8 6 6 6 5 5 7 6 8 6 10 19
3 3 3 4 5 3 2 3 3 4 5 5 4 6 6 6 9 9 6 6 5 7 9 9 8 9 7 7 6 8 9 10 8 6 5 5 7 7 6 7 5 3 6
2 1 3 3 4 3 2 3 2 3 3 4 4 5 6 8 7 9 8 7 5 6 8 9 8 7 6 5 5 7 5 5 4 4 3 5 6 6 6 7 5 5 6
3 3 1 2 4 4 5 3 3 4 3 4 7 7 6 8 9 7 8 7 7 5 5 6 7 7 7 7 4 3 5 4 10 3 2 2 3 4 5 5 6 6 6
5 3 1 4 5 5 6 5 5 3 5 3 7 7 7 7 8 7 7 8 7 6 6 4 7 5 6 7 7 2 5 5 4 6 3 3 3 4 4 4 6 5 5
5 2 2 3 5 5 6 5 3 4 4 5 5 8 9 6 7 8 7 8 8 5 5 6 5 5 4 5 6 7 5 5 6 6 7 6 3 3 4 2 4 4 4
3 2 2 4 4 5 5 6 6 7 7 7 8 8 8 8 7 8 9 8 8 6 6 6 5 6 6 6 6 7 6 5 6 4 4 7 10 5 3 4 4 3 3
Wind_Direction
351 14 17 23 31 26 30 27 25 23 18 17 16 21 13 11 10 8 0 356 358 350 352 307 289 265 298 334 351 4 123 134 140 124 134 132 123 135 133 139 132 125 127
2 20 9 20 28 32 30 27 26 25 21 16 8 7 2 360 357 351 349 345 344 337 345 328 275 281 276 294 303 312 173 140 150 147 148 132 143 151 169 163 165 169 146
34 24 20 22 23 26 24 24 26 29 24 21 15 4 354 344 338 334 331 327 327 327 323 321 320 293 279 275 284 234 183 166 193 159 165 155 207 193 185 193 186 169 151
42 17 25 33 28 29 30 25 24 25 30 28 23 15 5 353 337 323 314 310 317 316 315 316 312 305 299 246 243 240 236 214 218 208 203 205 220 232 205 177 186 177 163
28 7 29 40 40 37 30 27 25 23 26 26 20 14 6 3 354 343 328 315 307 299 292 292 296 292 286 262 245 239 236 232 235 230 234 230 224 244 214 197 192 183 173
22 8 11 37 37 36 36 38 38 33 31 26 19 9 5 359 356 360 354 339 321 304 292 285 275 275 276 270 253 241 231 231 235 237 255 259 245 217 214 214 189 177 169
32 16 13 32 37 35 35 34 33 34 36 30 31 21 10 10 7 3 359 359 352 337 318 293 280 275 268 262 256 248 239 229 221 220 251 262 234 223 196 184 174 164 161
43 20 20 24 33 33 35 35 33 35 34 30 27 27 22 14 10 359 359 352 344 343 338 324 307 283 275 270 254 249 241 233 231 210 229 245 236 219 186 171 162 160 161
39 31 20 14 20 28 32 36 35 34 31 30 26 23 18 18 12 5 3 358 348 341 334 333 330 307 286 274 262 243 239 232 222 224 217 228 233 209 187 181 177 169 172
40 31 22 16 16 17 23 33 34 33 31 28 25 22 19 11 7 360 359 354 355 347 349 330 328 327 322 292 273 251 237 238 219 220 236 213 205 183 176 175 181 185 188
42 35 21 21 18 11 35 25 28 29 32 26 21 16 10 4 357 1 355 357 356 351 351 345 339 337 327 319 285 270 250 231 205 212 239 224 197 184 180 184 200 196 202
36 28 23 22 22 19 34 20 18 20 16 17 14 7 4 360 357 358 352 355 356 357 349 345 341 338 336 326 314 289 266 236 224 208 224 239 211 198 193 194 197 201 204
69 47 29 27 25 30 25 19 18 10 11 9 10 9 358 360 356 357 348 347 346 350 345 339 330 326 322 311 316 300 282 285 257 236 223 235 218 212 206 202 201 204 208
71 52 35 28 27 26 23 22 10 16 13 12 3 6 6 2 356 354 350 341 344 341 339 336 327 317 318 310 303 317 304 261 252 234 244 248 202 220 214 211 206 214 213
79 60 42 34 25 14 26 13 13 10 8 359 2 356 1 359 354 343 345 338 339 339 337 334 333 324 320 314 302 282 281 292 257 235 225 239 218 199 200 212 233 223 227
87 68 54 42 27 19 20 10 1 357 356 353 345 344 351 350 345 346 340 338 333 335 328 324 326 334 324 320 315 305 287 283 305 260 202 204 224 213 224 240 250 246 247
92 78 55 49 23 21 8 1 349 342 354 352 346 340 333 335 323 332 334 331 324 326 323 326 330 332 327 323 315 310 308 296 282 310 243 233 213 207 223 262 264 274 256
106 81 62 33 15 10 5 354 356 350 349 335 323 320 325 336 338 340 338 329 317 317 320 324 326 327 323 318 315 307 298 289 282 274 261 199 222 199 210 256 246 243 273
102 88 52 17 8 2 357 352 335 323 318 309 312 320 325 334 334 342 331 322 327 321 322 320 324 320 320 318 312 306 294 283 269 265 236 259 177 197 207 228 236 225 249
115 108 53 15 360 347 328 318 299 294 299 309 324 327 332 334 333 332 324 317 325 321 320 321 318 323 308 303 309 296 290 275 256 249 239 223 229 220 216 217 240 219 225
144 74 45 356 343 350 332 311 310 319 323 331 325 326 323 328 330 329 315 318 318 326 319 313 318 322 320 320 314 323 291 275 257 235 227 217 221 227 227 226 210 207 218
152 48 356 356 343 331 330 314 302 295 290 282 308 321 316 329 324 325 325 316 310 319 324 328 327 321 319 346 315 287 307 323 360 271 226 222 220 224 226 235 235 214 216
199 195 245 353 353 3 359 325 324 315 317 325 333 327 328 320 317 314 318 316 316 310 313 318 321 334 320 317 281 290 311 326 344 314 332 257 242 223 220 220 227 217 218
183 193 20 12 15 1 350 356 353 318 320 298 306 312 314 310 306 304 308 311 311 306 301 300 320 315 328 319 320 282 295 318 312 318 330 332 299 250 234 242 239 220 224
146 139 20 359 4 356 353 351 340 318 284 296 308 317 319 311 299 300 303 306 306 301 292 295 305 304 298 299 300 303 291 288 275 263 293 308 328 265 268 237 244 237 225
135 87 2 7 338 339 349 343 334 321 314 323 325 322 319 318 312 303 298 298 293 288 296 298 286 282 279 281 280 280 282 280 296 308 315 327 312 313 297 271 234 242 250